Atoka, OK

7:13 AM CDT on October 15, 2019 (GMT -0500)
Atoka Municipal

Weather History for KAQR - June, 2019

Change the Weather History Date:

Friday, June 14, 2019

  Actual Average (KMLC) Record (KMLC)
Temperature  
Mean Temperature 74 °F -  
Max Temperature 87 °F 87 °F 101 °F (1963)
Min Temperature 60 °F 67 °F 57 °F (2006)
Cooling Degree Days 8    
Growing Degree Days 24 (Base 50)    
Moisture  
Dew Point 59 °F    
Average Humidity 65    
Maximum Humidity 94    
Minimum Humidity 43    
Precipitation  
Precipitation 0.00 in - - ()
Sea Level Pressure  
Sea Level Pressure 29.98 in    
Wind  
Wind Speed 3 mph (SSE)    
Max Wind Speed 17 mph    
Max Gust Speed 24 mph    
Visibility 10 miles    
Events Rain , Thunderstorm    
Averages and records for this station are not official NWS values.
T = Trace of Precipitation, MM = Missing Value Source: NWS Daily Summary

Daily Weather History Graph

Daily Weather History Graph

Search for Another Location

Airport or City:

Astronomy

Jun. 14, 2019 Rise Set
Actual Time 6:11 AM CDT 8:38 PM CDT
Civil Twilight 5:42 AM CDT 9:07 PM CDT
Nautical Twilight 5:06 AM CDT 9:43 PM CDT
Astronomical Twilight 4:26 AM CDT 10:23 PM CDT
Moon 6:07 PM CDT (6/14) 4:21 AM CDT (6/14)
Length of Visible Light 15h 25m
Length of Day
14h 26m
Waxing Gibbous, 92% of the Moon is Illuminated
Jun 14
Waxing Gibbous
Jun 17
Full
Jun 25
Last Quarter
Jul 2
New
Jul 9
First Quarter

Hourly Weather History & Observations

Time (CDT) Temp. Heat Index Dew Point Humidity Pressure Visibility Wind Dir Wind Speed Gust Speed Precip Events Conditions
12:15 AM 60.8 °F - 59.0 °F 94% 30.06 in 10.0 mi Calm Calm - N/A   Clear
12:35 AM 62.6 °F - 55.4 °F 77% 30.08 in 10.0 mi Calm Calm - N/A   Clear
12:55 AM 62.6 °F - 55.4 °F 77% 30.07 in 10.0 mi Calm Calm - N/A   Clear
1:15 AM 62.6 °F - 55.4 °F 77% 30.07 in 10.0 mi Calm Calm - N/A   Clear
1:35 AM 62.6 °F - 53.6 °F 72% 30.07 in 10.0 mi Calm Calm - N/A   Clear
1:55 AM 62.6 °F - 53.6 °F 72% 30.06 in 10.0 mi Calm Calm - N/A   Clear
2:15 AM 62.6 °F - 53.6 °F 72% 30.06 in 10.0 mi Calm Calm - N/A   Clear
2:35 AM 62.6 °F - 53.6 °F 72% 30.06 in 10.0 mi Calm Calm - N/A   Clear
2:55 AM 62.6 °F - 53.6 °F 72% 30.05 in 10.0 mi Calm Calm - N/A   Clear
3:15 AM 62.6 °F - 53.6 °F 72% 30.05 in 10.0 mi Calm Calm - N/A   Clear
3:35 AM 62.6 °F - 53.6 °F 72% 30.04 in 10.0 mi SE 3.5 mph - N/A   Clear
3:55 AM 62.6 °F - 53.6 °F 72% 30.04 in 10.0 mi SE 3.5 mph - N/A   Clear
4:15 AM 60.8 °F - 53.6 °F 77% 30.03 in 10.0 mi SE 3.5 mph - N/A   Clear
4:35 AM 60.8 °F - 53.6 °F 77% 30.03 in 10.0 mi SE 3.5 mph - N/A   Clear
4:55 AM 62.6 °F - 53.6 °F 72% 30.03 in 10.0 mi Calm Calm - N/A   Clear
5:15 AM 60.8 °F - 53.6 °F 77% 30.04 in 10.0 mi Calm Calm - N/A   Clear
5:35 AM 60.8 °F - 53.6 °F 77% 30.04 in 10.0 mi Calm Calm - N/A   Clear
5:55 AM 62.6 °F - 53.6 °F 72% 30.04 in 10.0 mi Calm Calm - N/A   Clear
6:15 AM 62.6 °F - 53.6 °F 72% 30.05 in 10.0 mi Calm Calm - N/A   Clear
6:35 AM 62.6 °F - 53.6 °F 72% 30.07 in 10.0 mi Calm Calm - N/A   Clear
6:55 AM 60.8 °F - 55.4 °F 82% 30.07 in 10.0 mi Calm Calm - N/A   Clear
7:15 AM 60.8 °F - 55.4 °F 82% 30.07 in 10.0 mi ESE 4.6 mph - N/A   Clear
7:35 AM 60.8 °F - 55.4 °F 82% 30.05 in 10.0 mi ESE 4.6 mph - N/A   Clear
7:55 AM 62.6 °F - 55.4 °F 77% 30.04 in 10.0 mi SE 4.6 mph - N/A Thunderstorm Clear
8:15 AM 62.6 °F - 55.4 °F 77% 30.05 in 10.0 mi ESE 3.5 mph - N/A   Clear
8:35 AM 64.4 °F - 55.4 °F 73% 30.05 in 10.0 mi SE 3.5 mph - N/A   Clear
8:55 AM 64.4 °F - 55.4 °F 73% 30.06 in 10.0 mi Calm Calm - N/A   Clear
9:15 AM 64.4 °F - 55.4 °F 73% 30.06 in 10.0 mi Calm Calm - N/A Thunderstorm Clear
9:35 AM 64.4 °F - 55.4 °F 73% 30.06 in 10.0 mi East 3.5 mph - N/A Thunderstorm Scattered Clouds
9:55 AM 64.4 °F - 57.2 °F 77% 30.04 in 7.0 mi Calm Calm - N/A Rain Light Rain
10:15 AM 64.4 °F - 59.0 °F 83% 30.05 in 10.0 mi Calm Calm - N/A   Clear
10:35 AM 68.0 °F - 59.0 °F 73% 30.03 in 10.0 mi SE 3.5 mph - N/A   Clear
10:55 AM 69.8 °F - 59.0 °F 68% 30.02 in 10.0 mi SE 6.9 mph - N/A   Clear
11:15 AM 73.4 °F - 60.8 °F 65% 30.00 in 10.0 mi SE 6.9 mph - N/A   Clear
11:35 AM 75.2 °F - 60.8 °F 61% 30.00 in 10.0 mi SSE 6.9 mph - N/A   Clear
11:55 AM 75.2 °F - 60.8 °F 61% 30.00 in 10.0 mi SSE 6.9 mph - N/A   Clear
12:15 PM 77.0 °F - 60.8 °F 57% 29.98 in 10.0 mi SSE 9.2 mph - N/A   Clear
12:35 PM 78.8 °F - 60.8 °F 54% 29.97 in 10.0 mi SSE 5.8 mph 16.1 mph N/A   Clear
12:55 PM 78.8 °F - 60.8 °F 54% 29.97 in 10.0 mi SSE 4.6 mph - N/A   Clear
1:15 PM 78.8 °F - 60.8 °F 54% 29.95 in 7.0 mi SSE 9.2 mph - N/A   Clear
1:35 PM 80.6 °F 81.8 °F 62.6 °F 54% 29.94 in 10.0 mi SSE 5.8 mph - N/A   Clear
1:55 PM 82.4 °F 83.4 °F 62.6 °F 51% 29.93 in 10.0 mi SSE 9.2 mph - N/A   Clear
2:15 PM 86.0 °F 86.6 °F 62.6 °F 45% 29.92 in 10.0 mi South 13.8 mph - N/A   Clear
2:35 PM 86.0 °F 86.6 °F 62.6 °F 45% 29.91 in 10.0 mi South 17.3 mph 23.0 mph N/A   Clear
2:55 PM 86.0 °F 86.6 °F 62.6 °F 45% 29.91 in 10.0 mi South 12.7 mph 20.7 mph N/A   Clear
3:15 PM 86.0 °F 86.6 °F 62.6 °F 45% 29.90 in 10.0 mi South 17.3 mph 23.0 mph N/A   Clear
3:35 PM 86.0 °F 87.3 °F 64.4 °F 48% 29.89 in 10.0 mi South 9.2 mph 21.9 mph N/A   Clear
3:55 PM 87.8 °F 88.5 °F 62.6 °F 43% 29.88 in 10.0 mi SSE 12.7 mph 21.9 mph N/A   Clear
4:15 PM 87.8 °F 89.4 °F 64.4 °F 46% 29.87 in 10.0 mi South 11.5 mph 19.6 mph N/A   Clear
4:35 PM 87.8 °F 89.4 °F 64.4 °F 46% 29.87 in 10.0 mi South 12.7 mph 24.2 mph N/A   Clear
4:55 PM 87.8 °F 89.4 °F 64.4 °F 46% 29.87 in 10.0 mi South 15.0 mph 23.0 mph N/A   Clear
5:15 PM 86.0 °F 87.3 °F 64.4 °F 48% 29.86 in 10.0 mi South 9.2 mph 16.1 mph N/A   Scattered Clouds
5:55 PM 87.8 °F 90.4 °F 66.2 °F 49% 29.85 in 10.0 mi South 12.7 mph 21.9 mph N/A   Clear
6:35 PM 86.0 °F 89.4 °F 68.0 °F 55% 29.83 in 10.0 mi South 8.1 mph 16.1 mph N/A   Clear
6:55 PM 84.2 °F 86.6 °F 66.2 °F 55% 29.84 in 10.0 mi SSE 13.8 mph 20.7 mph N/A   Clear
7:15 PM 84.2 °F 87.3 °F 68.0 °F 58% 29.84 in 10.0 mi South 12.7 mph 23.0 mph N/A   Clear
7:35 PM 82.4 °F 84.6 °F 66.2 °F 58% 29.84 in 10.0 mi South 10.4 mph 17.3 mph N/A   Clear
7:55 PM 82.4 °F 84.6 °F 66.2 °F 58% 29.83 in 10.0 mi SSE 10.4 mph 16.1 mph N/A   Clear
8:15 PM 80.6 °F 82.7 °F 66.2 °F 61% 29.83 in 10.0 mi SSE 6.9 mph 16.1 mph N/A   Clear
8:35 PM 80.6 °F 82.7 °F 66.2 °F 61% 29.83 in 10.0 mi SSE 6.9 mph - N/A   Clear
8:55 PM 78.8 °F - 66.2 °F 65% 29.83 in 10.0 mi SSE 6.9 mph - N/A   Clear
9:15 PM 78.8 °F - 66.2 °F 65% 29.84 in 10.0 mi SSE 5.8 mph - N/A   Clear
9:35 PM 78.8 °F - 66.2 °F 65% 29.84 in 10.0 mi SSE 4.6 mph - N/A   Clear